Estación municipal de Monistrol de Calders (Moianès, P.N.de Sant Llorenç del Munt i l'Obac)

Consulta los datos en tiempo real de la estación municipal de Monistrol de Calders





Hora UTC 08:40
Temperatura 17.3 ºC
Humedad 63.0 %
Presión 1012.2 hPa
Pluja 0.0 mm
Velocidad viento 0.0 km/h
Dirección viento NE

Webcam

Datos diarios 2026-05-08



Hora UTC (invierno +1h; verano +2h)
Temperatura (ºC) Humedad (%) Presión (hPa) Velocidad viento (km/h) Precipitación (mm)
Hora UTC Aire Humedad Presión Vel. Dir. Vel. Max Dir. Intent. máx 5 min.
00:05 9.3 90.0 1012.7 1.6 S 1.6 0.0
00:10 9.2 90.0 1012.7 1.6 SSE 4.8 0.0
00:15 9.2 90.0 1012.6 1.6 SSE 6.4 0.0
00:20 9.2 90.0 1012.4 1.6 S 6.4 0.0
00:25 9.2 90.0 1012.4 3.2 SSE 4.8 0.0
00:30 9.2 90.0 1012.4 1.6 S 4.8 0.0
00:35 9.2 91.0 1012.4 0.0 S 3.2 0.0
00:40 9.2 91.0 1012.4 0.0 S 1.6 0.0
00:45 9.2 91.0 1012.4 0.0 S 1.6 0.0
00:50 9.2 91.0 1012.3 1.6 S 1.6 0.0
00:55 9.2 90.0 1012.2 3.2 SE 4.8 0.0
01:00 9.1 90.0 1012.2 3.2 SSE 4.8 0.0
01:05 9.0 90.0 1012.2 1.6 SSE 4.8 0.0
01:10 8.9 91.0 1012.2 0.0 SSE 4.8 0.0
01:15 8.9 91.0 1012.2 0.0 SSE 3.2 0.0
01:20 8.9 91.0 1012.2 1.6 SSE 3.2 0.0
01:25 8.9 90.0 1012.1 1.6 SSE 4.8 0.0
01:30 8.8 91.0 1012.1 1.6 SSE 4.8 0.0
01:35 8.8 91.0 1012.1 0.0 SSE 1.6 0.0
01:40 8.7 91.0 1012.0 1.6 SSE 3.2 0.0
01:45 8.7 91.0 1012.0 3.2 SSE 3.2 0.0
01:50 8.6 91.0 1012.0 0.0 SSE 3.2 0.0
01:55 8.6 91.0 1011.9 3.2 SE 3.2 0.0
02:00 8.4 91.0 1011.9 0.0 SSE 4.8 0.0
02:05 8.3 91.0 1011.9 0.0 SSE 3.2 0.0
02:10 8.3 91.0 1011.9 1.6 SSE 3.2 0.0
02:20 8.1 91.0 1011.9 0.0 SSE 3.2 0.0
02:25 7.9 90.0 1011.7 0.0 SSE 0.0 0.0
02:30 7.8 91.0 1011.7 1.6 SSE 4.8 0.0
02:35 7.7 91.0 1011.7 1.6 SE 4.8 0.0
02:40 7.7 91.0 1011.7 6.4 SSE 6.4 0.0
02:45 7.6 91.0 1011.7 4.8 SSE 6.4 0.0
02:50 7.5 91.0 1011.7 3.2 SSE 4.8 0.0
02:55 7.4 91.0 1011.7 1.6 SSE 4.8 0.0
03:00 7.3 91.0 1011.7 1.6 SSE 3.2 0.0
03:05 7.2 91.0 1011.7 1.6 SSE 3.2 0.0
03:10 7.0 91.0 1011.6 0.0 SE 4.8 0.0
03:15 6.9 91.0 1011.5 1.6 SE 4.8 0.0
03:20 6.8 91.0 1011.5 0.0 SE 3.2 0.0
03:25 6.7 91.0 1011.6 0.0 SE 3.2 0.0
03:30 6.6 91.0 1011.5 1.6 ESE 4.8 0.0
03:35 6.5 91.0 1011.4 0.0 SSE 4.8 0.0
03:40 6.4 91.0 1011.4 1.6 SE 4.8 0.0
03:45 6.3 91.0 1011.4 3.2 SSE 8.0 0.0
03:50 6.3 91.0 1011.5 1.6 SSE 8.0 0.0
03:55 6.2 91.0 1011.4 4.8 SSE 8.0 0.0
04:00 6.1 91.0 1011.5 1.6 SSE 8.0 0.0
04:05 5.9 91.0 1011.3 6.4 S 8.0 0.0
04:10 6.0 92.0 1011.4 3.2 SSE 8.0 0.0
04:15 6.1 93.0 1011.4 3.2 SSE 8.0 0.0
04:20 6.1 93.0 1011.5 4.8 S 8.0 0.0
04:25 6.1 93.0 1011.4 3.2 SE 8.0 0.0
04:30 6.0 92.0 1011.6 1.6 SE 8.0 0.0
04:35 5.9 93.0 1011.6 3.2 SSE 4.8 0.0
04:40 5.9 93.0 1011.6 1.6 SSE 4.8 0.0
04:45 5.8 92.0 1011.7 3.2 SE 3.2 0.0
04:50 5.8 93.0 1011.6 1.6 SE 4.8 0.0
04:55 5.7 92.0 1011.6 1.6 SSE 4.8 0.0
05:00 5.6 92.0 1011.7 1.6 SE 4.8 0.0
05:05 5.4 92.0 1011.8 0.0 SE 4.8 0.0
05:10 5.4 93.0 1011.8 0.0 SE 4.8 0.0
05:15 5.4 93.0 1011.8 1.6 ESE 4.8 0.0
05:20 5.4 93.0 1011.8 0.0 SE 4.8 0.0
05:25 5.4 93.0 1011.8 4.8 SSE 6.4 0.0
05:30 5.3 93.0 1011.9 1.6 SE 4.8 0.0
05:35 5.4 93.0 1012.0 3.2 ESE 4.8 0.0
05:40 5.7 93.0 1012.0 1.6 SE 4.8 0.0
05:45 6.2 93.0 1012.1 1.6 SE 3.2 0.0
05:50 6.6 92.0 1012.1 1.6 ESE 4.8 0.0
05:55 6.8 91.0 1012.2 1.6 ESE 3.2 0.0
06:00 7.2 90.0 1012.3 0.0 SE 3.2 0.0
06:05 7.3 89.0 1012.3 1.6 SE 3.2 0.0
06:10 7.6 89.0 1012.2 1.6 SE 3.2 0.0
06:15 8.1 88.0 1012.4 3.2 ENE 3.2 0.0
06:20 8.7 88.0 1012.4 1.6 ENE 3.2 0.0
06:25 9.2 87.0 1012.4 0.0 ESE 3.2 0.0
06:30 9.6 86.0 1012.3 0.0 ESE 3.2 0.0
06:35 9.9 86.0 1012.4 0.0 ESE 1.6 0.0
06:40 10.3 84.0 1012.4 1.6 ESE 1.6 0.0
06:45 10.6 83.0 1012.3 1.6 ESE 3.2 0.0
06:50 11.1 81.0 1012.3 1.6 E 3.2 0.0
06:55 11.4 80.0 1012.2 1.6 ESE 3.2 0.0
07:00 11.6 81.0 1012.2 0.0 SE 3.2 0.0
07:05 11.9 79.0 1012.2 0.0 SE 3.2 0.0
07:10 12.0 80.0 1012.1 0.0 SSW 3.2 0.0
07:15 12.6 81.0 1012.1 1.6 ESE 1.6 0.0
07:20 13.1 80.0 1012.1 0.0 E 3.2 0.0
07:25 13.4 79.0 1012.1 1.6 SE 3.2 0.0
07:30 13.8 77.0 1012.1 1.6 ESE 3.2 0.0
07:35 14.1 77.0 1012.1 1.6 ESE 3.2 0.0
07:40 14.2 75.0 1012.1 1.6 E 3.2 0.0
07:45 14.4 75.0 1012.1 1.6 ESE 3.2 0.0
07:50 14.8 74.0 1012.1 1.6 E 3.2 0.0
07:55 15.0 73.0 1012.2 0.0 E 3.2 0.0
08:00 15.4 74.0 1012.1 0.0 E 3.2 0.0
08:05 15.8 72.0 1012.1 3.2 E 3.2 0.0
08:10 16.1 72.0 1012.1 0.0 NNW 4.8 0.0
08:15 16.3 66.0 1012.1 1.6 NNW 3.2 0.0
08:20 16.6 68.0 1012.1 0.0 NNW 3.2 0.0
08:25 16.6 67.0 1012.0 0.0 N 3.2 0.0
08:30 16.8 64.0 1012.1 1.6 NNW 3.2 0.0
08:35 17.0 63.0 1012.2 3.2 ENE 4.8 0.0
08:40 17.3 63.0 1012.2 0.0 NE 4.8 0.0
Máxima 17.3 93.0 1012.7 6.4 S 8.0 0.0
Mínima 5.3 63.0 1011.3
Total 0.0